« Back
NWS Peachtree City, Ga » Text Product » GA Regional Weather Roundup


Printer-friendly Version
Current Version              Previous Versions:   1  2  3  4  5  6  7  8  9  

Regional Weather Roundup

544
ASUS42 KFFC 300403
RWRGA
WEATHER ROUNDUP FOR GEORGIA
NATIONAL WEATHER SERVICE PEACHTREE CITY GA
1200 AM EDT THU OCT 30 2014

NOTE: "FAIR" INDICATES FEW OR NO CLOUDS BELOW 12,000 FEET WITH NO
SIGNIFICANT WEATHER AND/OR OBSTRUCTIONS TO VISIBILITY.

* = USE WITH CAUTION. THE STATIONS MARKED WITH AN ASTERISK MAY NOT
REPORT WEATHER SUCH AS PRECIPITATION, FOG, OR THUNDER AND ARE NOT
QUALITY CONTROLLED BY NWS.

THE REMARK "TC" DENOTES TEMPERATURE READING IN DEGREES CELSIUS.

GAZ001>058-300500-
NORTH GEORGIA

CITY           SKY/WX    TMP DP  RH WIND       PRES   REMARKS
ATLANTA        CLEAR     52  47  83 NW6       30.06S
ATHENS         CLEAR     52  47  83 CALM      30.03S
CHAMBLEE       CLEAR     50  44  80 NW3       30.06F
PEACHTREE CITY CLEAR     49  47  93 CALM      30.08S
ROME           CLEAR     45  44  97 CALM      30.09F
WEST ATLANTA   CLEAR     51  45  79 CALM      30.07F
GAINESVILLE    CLEAR     50  41  71 W5        30.05F
CARTERSVILLE   CLEAR     47  45  93 CALM      30.09F


CITY           SKY/WX    TMP DP  RH WIND       PRES   REMARKS
DALTON*        CLEAR     45  45 100 CALM      30.09F
MARIETTA       CLEAR     53  46  77 NW7       30.07S
$$

GAZ059>098-102>109-300500-
CENTRAL GEORGIA

CITY           SKY/WX    TMP DP  RH WIND       PRES   REMARKS
AUGUSTA-BUSH   CLOUDY    68  62  81 NW8       29.98S
AUGUSTA-DANIEL CLOUDY    69  60  73 W6        29.99S
COLUMBUS       CLEAR     58  51  78 N3        30.07S
MACON          CLOUDY    62  50  64 N9        30.04S
ROBINS AFB     CLOUDY    63  54  71 NW10      30.01R


CITY           SKY/WX    TMP DP  RH WIND       PRES   REMARKS
LAGRANGE*      CLEAR     52  52  99 CALM      30.08S
SYLVANIA*      CLOUDY    72  69  92 CALM      29.99S
MILLEDGEVILLE* CLOUDY    63  54  72 NW5       30.03S
$$

GAZ099>101-110>166-300500-
SOUTH GEORGIA

CITY           SKY/WX    TMP DP  RH WIND       PRES   REMARKS
SAVANNAH       PTCLDY    70  66  87 S6        29.97F
VALDOSTA       PTCLDY    65  59  81 CALM      30.01F
ALMA           MOCLDY    68  62  81 CALM      29.98F
ST SIMONS      CLEAR     72  66  81 SW6       29.98F
FT STEWART     CLEAR     67  64  91 S2        29.96F
ALBANY         CLEAR     67  64  90 CALM      30.04S
HUNTER AFB     CLEAR     69  69  99 S5        29.95F
MOODY AFB      PTCLDY    68  63  84 SW6       30.00F
BRUNSWICK      CLEAR     72  64  78 SW6       29.99F


CITY           SKY/WX    TMP DP  RH WIND       PRES   REMARKS
BAINBRIDGE*    PTCLDY    72  68  88 CALM      30.03R
MOULTRIE*      MOCLDY    68  66  94 CALM      30.03S
VIDALIA*       CLOUDY    68  66  94 NW3       29.99F
WAYCROSS*      CLEAR     67  64  88 CALM      29.99F
DOUGLAS*       MOCLDY    70  64  83 W3        30.01S
$$



USA.gov is the U.S. government's official web portal to all federal, state and local government web resources and services.